Tracking 29489 objects as of 9-Sep-2024
HD Live streaming from Space Station
objects crossing your sky now

FENGYUN 1C DEB

Track FENGYUN 1C DEB now!
10-day predictions


NORAD ID: 30575
Int'l Code: 1999-025ALR
Perigee: 737.6 km
Apogee: 822.2 km
Inclination: 99.2 °
Period: 100.3 minutes
Semi major axis: 7150 km
RCS: 0.029 m2 (small)
Launch date: May 10, 1999
Source: People's Republic of China (PRC)
Launch site: Taiyaun Space Center, China (TSC)

Note: This is SATELLITE DEBRIS
Your satellite tracking list
Your tracking list is empty




NASA's NSSDC Master Catalog

Two Line Element Set (TLE):
1 30575U 99025ALR 24253.07653780  .00010014  00000-0  34109-2 0  9992
2 30575  99.2068 306.4025 0059121 141.8561 281.2312 14.35697748916201
Source of the keplerian elements: AFSPC